Perth, Western Australia

11:41 AM AWST on July 29, 2016 (GMT +0800)
Perth International

Weather History for YPPH - December, 2013

Change the Weather History Date:

Saturday, December 7, 2013

  Actual Average Record
Temperature  
Mean Temperature 72 °F -  
Max Temperature 82 °F 85 °F 95 °F (1998)
Min Temperature 62 °F 60 °F 42 °F (2007)
Cooling Degree Days 7    
Growing Degree Days 22 (Base 50)    
Moisture  
Dew Point 60 °F    
Average Humidity 65    
Maximum Humidity 94    
Minimum Humidity 41    
Precipitation  
Precipitation 0.00 in 0.01 in - ()
Sea Level Pressure  
Sea Level Pressure 29.76 in    
Wind  
Wind Speed 8 mph ()    
Max Wind Speed 16 mph    
Max Gust Speed -    
Visibility 8.3 miles    
Events      
Averages and records for this station are not official NWS values.
T = Trace of Precipitation, MM = Missing Value Source: Averaged Metar Reports

Daily Weather History Graph

Daily Weather History Graph

Search for Another Location

Airport or City:

Trip Planner

Search our weather history database for the weather conditions in past years. The results will help you decide how hot, cold, wet, or windy it might be!

Date:

Astronomy

Dec. 07, 2013 Rise Set
Actual Time 5:02 AM AWST 7:12 PM AWST
Civil Twilight 4:34 AM AWST 7:40 PM AWST
Nautical Twilight 4:00 AM AWST 8:14 PM AWST
Astronomical Twilight 3:24 AM AWST 8:51 PM AWST
Moon 9:30 AM AWST (12/7) 10:56 PM AWST (12/7)
Length of Visible Light 15h 05m
Length of Day
14h 09m
Waxing Crescent, 23% of the Moon is Illuminated
Dec 7
Waxing Crescent
Dec 9
First Quarter
Dec 17
Full
Dec 25
Last Quarter
Jan 1
New

Hourly Weather History & Observations

Time (AWST) Temp. Heat Index Dew Point Humidity Pressure Visibility Wind Dir Wind Speed Gust Speed Precip Events Conditions
12:00 AM 67 °F - 61 °F 77% 29.68 in 19 mi SSE 5.8 mph - -   Partly Cloudy
12:00 AM 68.0 °F - 60.8 °F 78% 29.65 in - SSE 5.8 mph - N/A   Clear
12:30 AM 66.2 °F - 60.8 °F 83% 29.65 in - ESE 4.6 mph - N/A   Clear
1:00 AM 66.2 °F - 60.8 °F 83% 29.65 in - East 5.8 mph - N/A   Clear
1:30 AM 66.2 °F - 60.8 °F 83% 29.65 in - East 5.8 mph - N/A   Clear
2:00 AM 69 °F - 60 °F 65% 29.66 in - NE 8.1 mph - -  
2:00 AM 69.8 °F - 60.8 °F 73% 29.65 in - NE 8.1 mph - N/A   Clear
2:30 AM 68.0 °F - 59.0 °F 73% 29.65 in - NNE 8.1 mph - N/A   Clear
3:00 AM 68 °F - 60 °F 68% 29.67 in 19 mi ENE 6.9 mph - -   Partly Cloudy
3:00 AM 68.0 °F - 60.8 °F 78% 29.65 in - NE 6.9 mph - N/A   Clear
3:30 AM 66.2 °F - 60.8 °F 83% 29.65 in - ENE 5.8 mph - N/A   Clear
4:00 AM 66.2 °F - 60.8 °F 83% 29.65 in - East 5.8 mph - N/A   Clear
4:30 AM 64.4 °F - 60.8 °F 88% 29.68 in - NE 5.8 mph - N/A   Clear
5:00 AM 63 °F - 60 °F 86% 29.69 in - NE 5.8 mph - -  
5:00 AM 62.6 °F - 60.8 °F 94% 29.68 in - NE 5.8 mph - N/A   Clear
5:30 AM 64.4 °F - 60.8 °F 88% 29.68 in - NNE 6.9 mph - N/A   Clear
6:00 AM 66 °F - 63 °F 85% 29.71 in 12 mi NNE 6.9 mph - -   Haze
6:00 AM 66.2 °F - 62.6 °F 88% 29.71 in - NNE 6.9 mph - N/A   Clear
6:30 AM 68.0 °F - 62.6 °F 83% 29.71 in 6.2 mi NNE 6.9 mph - N/A   Scattered Clouds
7:00 AM 68.0 °F - 62.6 °F 83% 29.71 in 6.2 mi NNE 5.8 mph - N/A   Scattered Clouds
7:30 AM 71.6 °F - 64.4 °F 78% 29.71 in 6.2 mi NNE 8.1 mph - N/A   Partly Cloudy
8:00 AM 73 °F - 64 °F 67% 29.74 in - North 9.2 mph - -  
8:00 AM 73.4 °F - 64.4 °F 73% 29.74 in 6.2 mi North 9.2 mph - N/A   Scattered Clouds
8:30 AM 73.4 °F - 64.4 °F 73% 29.74 in 6.2 mi NNW 5.8 mph - N/A   Scattered Clouds
9:00 AM 75 °F - 62 °F 56% 29.75 in 16 mi NW 3.5 mph - -   Partly Cloudy
9:00 AM 75.2 °F - 62.6 °F 65% 29.74 in 6.2 mi NW 3.5 mph - N/A   Scattered Clouds
9:30 AM 77.0 °F - 62.6 °F 61% 29.74 in 6.2 mi South 8.1 mph - N/A   Scattered Clouds
10:00 AM 80.6 °F 81.5 °F 60.8 °F 51% 29.74 in 6.2 mi WSW 6.9 mph - N/A   Mostly Cloudy
10:30 AM 78.8 °F - 60.8 °F 54% 29.74 in 6.2 mi SW 10.4 mph - N/A   Mostly Cloudy
11:00 AM 80 °F - 61 °F 43% 29.76 in - WSW 12.7 mph - -  
11:00 AM 78.8 °F - 60.8 °F 54% 29.74 in 6.2 mi WSW 12.7 mph - N/A   Mostly Cloudy
11:30 AM 82.4 °F 82.9 °F 60.8 °F 48% 29.77 in 6.2 mi WSW 12.7 mph - N/A   Mostly Cloudy
12:00 PM 80 °F - 60 °F 41% 29.77 in 16 mi WSW 13.8 mph - -   Partly Cloudy
12:00 PM 80.6 °F 81.5 °F 60.8 °F 51% 29.77 in 6.2 mi WSW 13.8 mph - N/A   Mostly Cloudy
12:30 PM 78.8 °F - 60.8 °F 54% 29.77 in 6.2 mi West 15.0 mph - N/A   Mostly Cloudy
1:00 PM 78.8 °F - 60.8 °F 54% 29.77 in 6.2 mi WSW 15.0 mph - N/A   Mostly Cloudy
1:30 PM 78.8 °F - 60.8 °F 54% 29.77 in 6.2 mi SW 16.1 mph - N/A   Mostly Cloudy
2:00 PM 79 °F - 62 °F 45% 29.78 in - West 12.7 mph - -  
2:00 PM 78.8 °F - 60.8 °F 54% 29.77 in 6.2 mi West 12.7 mph - N/A   Mostly Cloudy
2:30 PM 80.6 °F 81.5 °F 60.8 °F 51% 29.77 in 6.2 mi WSW 15.0 mph - N/A   Mostly Cloudy
3:00 PM 79 °F - 61 °F 44% 29.79 in 16 mi West 15.0 mph - -   Partly Cloudy
3:00 PM 78.8 °F - 60.8 °F 54% 29.77 in 6.2 mi West 15.0 mph - N/A   Mostly Cloudy
3:30 PM 77.0 °F - 60.8 °F 57% 29.77 in 6.2 mi West 16.1 mph - N/A   Mostly Cloudy
4:00 PM 75.2 °F - 60.8 °F 61% 29.80 in 6.2 mi West 16.1 mph - N/A   Mostly Cloudy
4:30 PM 73.4 °F - 60.8 °F 65% 29.80 in 6.2 mi West 16.1 mph - N/A   Mostly Cloudy
5:00 PM 73 °F - 59 °F 51% 29.80 in - WSW 15.0 mph - -  
5:00 PM 73.4 °F - 59.0 °F 61% 29.80 in 6.2 mi WSW 15.0 mph - N/A   Mostly Cloudy
5:30 PM 75.2 °F - 59.0 °F 57% 29.80 in 6.2 mi WSW 15.0 mph - N/A   Mostly Cloudy
6:00 PM 73 °F - 58 °F 50% 29.81 in 16 mi WSW 13.8 mph - -   Partly Cloudy
6:00 PM 73.4 °F - 59.0 °F 61% 29.80 in 6.2 mi WSW 13.8 mph - N/A   Mostly Cloudy
6:30 PM 71.6 °F - 57.2 °F 60% 29.83 in 6.2 mi WSW 12.7 mph - N/A   Mostly Cloudy
7:00 PM 69.8 °F - 59.0 °F 68% 29.83 in - WSW 12.7 mph - N/A   Clear
7:30 PM 69.8 °F - 57.2 °F 64% 29.83 in - SW 10.4 mph - N/A   Clear
8:00 PM 69 °F - 57 °F 57% 29.86 in - SW 11.5 mph - -  
8:00 PM 69.8 °F - 57.2 °F 64% 29.86 in - SW 11.5 mph - N/A   Clear
8:30 PM 69.8 °F - 57.2 °F 64% 29.86 in - SW 12.7 mph - N/A   Clear
9:00 PM 69 °F - 57 °F 57% 29.86 in 16 mi WSW 8.1 mph - -   Partly Cloudy
9:00 PM 69.8 °F - 57.2 °F 64% 29.86 in - WSW 8.1 mph - N/A   Clear
9:30 PM 69.8 °F - 57.2 °F 64% 29.86 in 6.2 mi SSW 8.1 mph - N/A   Scattered Clouds
10:00 PM 69.8 °F - 55.4 °F 60% 29.86 in 6.2 mi South 10.4 mph - N/A   Mostly Cloudy
10:30 PM 69.8 °F - 57.2 °F 64% 29.86 in 6.2 mi South 9.2 mph - N/A   Scattered Clouds
11:00 PM 69 °F - 56 °F 53% 29.88 in - South 12.7 mph - -  
11:00 PM 69.8 °F - 55.4 °F 60% 29.89 in 6.2 mi South 12.7 mph - N/A   Partly Cloudy
11:30 PM 68.0 °F - 53.6 °F 60% 29.89 in 6.2 mi SE 13.8 mph - N/A   Scattered Clouds